Miami Beach, Florida, United States (33109)
Lat: 25.79N, Lon: 80.13W
Wx Zone: FLZ173
Local Info
Past Weather Observations for Thursday, December 18, 2014

NOTE: This archive is for the closest National Weather Service station to Miami Beach. Information may differ from the station used for current weather conditions.

Click here for Long-term Archive

Time Weather Temperature Dewpoint Humidity Pressure Winds Precip Visibility
23:53
Clear
63°F / 17°C 55°F / 13°C 77% 30.12 in
(1020 mb)
Calm - 10SM
22:53
Clear
64°F / 18°C 55°F / 13°C 73% 30.12 in
(1020 mb)
Calm - 10SM
21:53
Clear
68°F / 20°C 55°F / 13°C 64% 30.12 in
(1020 mb)
Calm - 10SM
20:53
Clear
70°F / 21°C 59°F / 15°C 69% 30.12 in
(1020 mb)
Calm - 10SM
19:53
Clear
70°F / 21°C 61°F / 16°C 73% 30.09 in
(1019 mb)
Calm - 10SM
18:53
Clear
72°F / 22°C 61°F / 16°C 69% 30.09 in
(1019 mb)
SSE 4.6 mph
(SSE 7 kph)
- 10SM
17:53
Partly Cloudy
72°F / 22°C 59°F / 15°C 65% 30.09 in
(1019 mb)
SSE 3.5 mph
(SSE 6 kph)
- 10SM
16:53
Partly Cloudy
75°F / 24°C 55°F / 13°C 50% 30.06 in
(1018 mb)
Variable 3.5 mph
(Variable 6 kph)
- 10SM
15:53
Partly Cloudy
79°F / 26°C 57°F / 14°C 48% 30.06 in
(1018 mb)
WNW 5.8 mph
(WNW 9 kph)
- 10SM
14:53
Partly Cloudy
79°F / 26°C 55°F / 13°C 45% 30.09 in
(1019 mb)
Variable 5.8 mph
(Variable 9 kph)
- 10SM
13:53
Partly Cloudy
77°F / 25°C 57°F / 14°C 51% 30.09 in
(1019 mb)
SW 5.8 mph
(SW 9 kph)
- 10SM
12:53
Partly Cloudy
79°F / 26°C 59°F / 15°C 51% 30.12 in
(1020 mb)
WNW 5.8 mph
(WNW 9 kph)
- 10SM
11:53
Mostly Cloudy
73°F / 23°C 59°F / 15°C 61% 30.15 in
(1021 mb)
Variable 3.5 mph
(Variable 6 kph)
- 10SM
10:53
Mostly Cloudy
75°F / 24°C 61°F / 16°C 61% 30.18 in
(1022 mb)
NW 4.6 mph
(NW 7 kph)
- 10SM
09:53
Partly Cloudy
72°F / 22°C 63°F / 17°C 73% 30.18 in
(1022 mb)
NNW 5.8 mph
(NNW 9 kph)
- 10SM
08:53
Partly Cloudy
70°F / 21°C 61°F / 16°C 73% 30.15 in
(1021 mb)
Calm - 10SM
07:53
Partly Cloudy
63°F / 17°C 57°F / 14°C 83% 30.15 in
(1021 mb)
Calm - 10SM
06:53
Clear
63°F / 17°C 57°F / 14°C 83% 30.15 in
(1021 mb)
NW 3.5 mph
(NW 6 kph)
- 10SM
05:53
Partly Cloudy
63°F / 17°C 55°F / 13°C 77% 30.12 in
(1020 mb)
Calm - 10SM
04:53
Clear
61°F / 16°C 54°F / 12°C 77% 30.12 in
(1020 mb)
Calm - 10SM
03:53
Clear
63°F / 17°C 55°F / 13°C 77% 30.15 in
(1021 mb)
WNW 4.6 mph
(WNW 7 kph)
- 10SM
02:53
Partly Cloudy
64°F / 18°C 54°F / 12°C 68% 30.15 in
(1021 mb)
WNW 4.6 mph
(WNW 7 kph)
- 10SM
01:53
Clear
64°F / 18°C 54°F / 12°C 68% 30.15 in
(1021 mb)
NW 4.6 mph
(NW 7 kph)
- 10SM
00:53
Clear
64°F / 18°C 54°F / 12°C 68% 30.15 in
(1021 mb)
NW 4.6 mph
(NW 7 kph)
- 10SM
Time Weather Temperature Dewpoint Humidity Pressure Winds Precip Visibility


Weather for websites

WeatherForYou.com, LLC is not responsible for any damages or problems caused by this service. Current weather conditions are obtained from the closest station including government and personal stations which may have varying degrees of accuracy. Weather forecasts are derived from the NOAA NDFD. Like all things, this site belongs to Jesus Christ... He just trusts me to maintain it. If you have any questions or comments email webmaster@weatherforyou.com

Copyright © 2014, WeatherForYou.com LLC. All rights reserved.